Weather in Maloye Karlino

Russia / Saint-Petersburg and Leningrad Oblast     59°43′26″N   30°16′00″E
temp.,
°C
wind,
m/s
gust,
m/s
humid.,
%
clouds,
%
prec.,
mm/h
press.,
hPa
HPBL,
m
26 september, sun
sun2600:00+9nw51189100 0.3 1003614
03:00+9nw5119074 0.3 1005624
06:00+8nw61189100 0.1 1008651
09:00+9nnw61188100 0.1 1012692
12:00+10nnw698087 0.0 1015864
15:00+12nnw687239 0.1 1018950
18:00+11n36795 0.0 1021163
21:00+8nnw369329 0.0 1023109
27 september, mon
mon2700:00+7nnw34965 0.0 102573
03:00+6nnw34975 0.0 102762
06:00+6n229713 0.0 102838
09:00+8nne24918 0.0 1029155
12:00+13ne247112 0.0 1030709
15:00+14ne34595 0.0 10301060
18:00+11ene35765 0.0 1031127
21:00+7ene22935 0.0 103133
28 september, tue
tue2800:00+6ene22931 0.0 103212
03:00+6ene11940 0.0 103310
06:00+5ene12925 0.0 103310
09:00+7e23855 0.0 1033139
12:00+12e346851 0.0 1034633
15:00+14e235840 0.0 10331230
18:00+12ese3463100 0.0 1033113
21:00+10se3672100 0.0 1034170
29 september, wed
wed2900:00+9se2575100 0.0 1035176
03:00+9sse2473100 0.0 1036102
06:00+9sse2368100 0.0 103662
09:00+10sse2364100 0.0 1036144
12:00+12s235263 0.0 10361347
15:00+13ssw235033 0.0 10351363
18:00+10ssw11639 0.0 103510
21:00+7s117511 0.0 103511
30 september, thu
thu3000:00+6s22835 0.0 103613
03:00+5s22875 0.0 103618
06:00+4s22895 0.0 103624
09:00+6s24797 0.0 1036135
12:00+11sse34585 0.0 1035675
15:00+13sse45505 0.0 10351077
18:00+10sse336722 0.0 103449
21:00+6sse358245 0.0 103476